Weather History for Sparta, IL

Change the Weather History Date:

Sunday, February 12, 2012

  Actual Average (KBLV) Record (KBLV)
Temperature  
Mean Temperature 26 °F -  
Max Temperature 35 °F 43 °F 67 °F (1990)
Min Temperature 17 °F 24 °F -10 °F (1981)
Degree Days  
Heating Degree Days 39    
Moisture  
Dew Point 6 °F    
Average Humidity 45    
Maximum Humidity 68    
Minimum Humidity 24    
Precipitation  
Precipitation 0.00 in - - ()
Sea Level Pressure  
Sea Level Pressure 30.50 in    
Wind  
Wind Speed 8 mph (WNW)    
Max Wind Speed 13 mph    
Max Gust Speed 18 mph    
Visibility 10 miles    
Events      
Averages and records for this station are not official NWS values.
T = Trace of Precipitation, MM = Missing Value Source: NWS Daily Summary

Daily Weather History Graph

Daily Weather History Graph

Search for Another Location

Airport:

Trip Planner

Search our weather history database for the weather conditions in past years. The results will help you decide how hot, cold, wet, or windy it might be!

Date:

Astronomy

Feb. 12, 2012 Rise Set
Actual Time 6:53 AM CST 5:33 PM CST
Civil Twilight 6:25 AM CST 6:00 PM CST
Nautical Twilight 5:54 AM CST 6:31 PM CST
Astronomical Twilight 5:24 AM CST 7:02 PM CST
Moon 11:24 PM CST (2/12) 9:17 AM CST (2/12)
Length of Visible Light 11h 34m
Length of Day
10h 40m
Waning Gibbous, 72% of the Moon is Illuminated
Feb 12
Waning Gibbous
Feb 14
Last Quarter
Feb 21
New
Feb 29
First Quarter
Mar 8
Full

Hourly Weather History & Observations

Time (CST) Temp. Windchill Dew Point Humidity Pressure Visibility Wind Dir Wind Speed Gust Speed Precip Events Conditions
12:15 AM 21.2 °F 12.6 °F 6.8 °F 54% 30.54 in 10.0 mi WNW 6.9 mph - N/A   Clear
12:35 AM 21.2 °F 13.6 °F 6.8 °F 54% 30.53 in 10.0 mi WNW 5.8 mph - N/A   Clear
12:55 AM 21.2 °F 14.9 °F 6.8 °F 54% 30.53 in 10.0 mi WNW 4.6 mph - N/A   Clear
1:15 AM 21.2 °F 13.6 °F 6.8 °F 54% 30.53 in 10.0 mi WNW 5.8 mph - N/A   Clear
1:35 AM 21.2 °F 12.6 °F 6.8 °F 54% 30.53 in 10.0 mi WNW 6.9 mph - N/A   Clear
1:55 AM 21.2 °F 10.9 °F 6.8 °F 54% 30.52 in 10.0 mi WNW 9.2 mph - N/A   Clear
2:15 AM 21.2 °F 10.9 °F 6.8 °F 54% 30.52 in 10.0 mi WNW 9.2 mph - N/A   Clear
2:35 AM 21.2 °F 11.7 °F 6.8 °F 54% 30.51 in 10.0 mi WNW 8.1 mph - N/A   Clear
2:55 AM 21.2 °F 10.9 °F 6.8 °F 54% 30.50 in 10.0 mi WNW 9.2 mph - N/A   Clear
3:15 AM 19.4 °F 9.5 °F 6.8 °F 58% 30.50 in 10.0 mi WNW 8.1 mph - N/A   Clear
3:35 AM 19.4 °F 9.5 °F 6.8 °F 58% 30.50 in 10.0 mi WNW 8.1 mph - N/A   Clear
3:55 AM 19.4 °F 8.6 °F 6.8 °F 58% 30.51 in 10.0 mi WNW 9.2 mph - N/A   Clear
4:15 AM 19.4 °F 9.5 °F 6.8 °F 58% 30.51 in 10.0 mi WNW 8.1 mph - N/A   Clear
4:35 AM 19.4 °F 8.6 °F 8.6 °F 63% 30.53 in 10.0 mi WNW 9.2 mph - N/A   Clear
4:55 AM 19.4 °F 7.9 °F 6.8 °F 58% 30.54 in 10.0 mi West 10.4 mph 16.1 mph N/A   Clear
5:15 AM 19.4 °F 9.5 °F 8.6 °F 63% 30.54 in 10.0 mi WNW 8.1 mph - N/A   Clear
5:35 AM 19.4 °F 8.6 °F 8.6 °F 63% 30.54 in 10.0 mi WNW 9.2 mph - N/A   Clear
5:55 AM 19.4 °F 10.4 °F 8.6 °F 63% 30.55 in 10.0 mi WNW 6.9 mph - N/A   Clear
6:15 AM 19.4 °F 8.6 °F 8.6 °F 63% 30.55 in 10.0 mi West 9.2 mph - N/A   Clear
6:35 AM 17.6 °F 7.3 °F 6.8 °F 63% 30.56 in 10.0 mi West 8.1 mph - N/A   Clear
6:55 AM 17.6 °F 7.3 °F 6.8 °F 63% 30.56 in 10.0 mi West 8.1 mph - N/A   Clear
7:15 AM 17.6 °F 6.4 °F 8.6 °F 68% 30.55 in 10.0 mi West 9.2 mph - N/A   Clear
7:35 AM 19.4 °F 8.6 °F 8.6 °F 63% 30.55 in 10.0 mi WNW 9.2 mph 16.1 mph N/A   Clear
7:55 AM 19.4 °F 7.2 °F 6.8 °F 58% 30.55 in 10.0 mi WNW 11.5 mph 16.1 mph N/A   Clear
8:15 AM 19.4 °F 7.2 °F 6.8 °F 58% 30.55 in 10.0 mi WNW 11.5 mph 16.1 mph N/A   Clear
8:35 AM 21.2 °F 8.9 °F 6.8 °F 54% 30.55 in 10.0 mi WNW 12.7 mph 17.3 mph N/A   Clear
8:55 AM 21.2 °F 10.1 °F 6.8 °F 54% 30.55 in 10.0 mi NW 10.4 mph 18.4 mph N/A   Clear
9:15 AM 21.2 °F 10.1 °F 6.8 °F 54% 30.55 in 10.0 mi WNW 10.4 mph 16.1 mph N/A   Clear
9:35 AM 23.0 °F 12.4 °F 6.8 °F 50% 30.54 in 10.0 mi WNW 10.4 mph 16.1 mph N/A   Clear
9:55 AM 24.8 °F 14.6 °F 5.0 °F 43% 30.54 in 10.0 mi NW 10.4 mph 16.1 mph N/A   Clear
10:15 AM 24.8 °F 14.0 °F 3.2 °F 40% 30.54 in 10.0 mi WNW 11.5 mph 16.1 mph N/A   Clear
10:35 AM 26.6 °F 17.5 °F 5.0 °F 40% 30.53 in 10.0 mi WNW 9.2 mph - N/A   Clear
10:55 AM 26.6 °F 19.1 °F 5.0 °F 40% 30.53 in 10.0 mi WNW 6.9 mph - N/A   Clear
11:15 AM 26.6 °F 18.2 °F 3.2 °F 37% 30.52 in 10.0 mi NW 8.1 mph - N/A   Clear
11:35 AM 28.4 °F 20.4 °F 3.2 °F 34% 30.51 in 10.0 mi WNW 8.1 mph - N/A   Clear
11:55 AM 30.2 °F 21.9 °F 3.2 °F 32% 30.50 in 10.0 mi West 9.2 mph - N/A   Clear
12:15 PM 30.2 °F 21.9 °F 3.2 °F 32% 30.50 in 10.0 mi NW 9.2 mph - N/A   Clear
12:35 PM 30.2 °F 21.9 °F 3.2 °F 32% 30.49 in 10.0 mi West 9.2 mph - N/A   Clear
12:55 PM 32.0 °F 22.5 °F 1.4 °F 27% 30.48 in 10.0 mi West 12.7 mph 16.1 mph N/A   Clear
1:15 PM 33.8 °F 26.4 °F 3.2 °F 28% 30.48 in 10.0 mi NW 9.2 mph - N/A   Clear
1:35 PM 33.8 °F 28.6 °F 5.0 °F 30% 30.46 in 10.0 mi WNW 5.8 mph - N/A   Clear
1:55 PM 33.8 °F 28.6 °F 5.0 °F 30% 30.46 in 10.0 mi NW 5.8 mph 9.2 mph N/A   Clear
2:15 PM 33.8 °F 27.0 °F 5.0 °F 30% 30.45 in 10.0 mi West 8.1 mph - N/A   Clear
2:35 PM 33.8 °F 26.4 °F 3.2 °F 28% 30.44 in 10.0 mi West 9.2 mph - N/A   Clear
2:55 PM 35.6 °F 29.2 °F 5.0 °F 28% 30.44 in 10.0 mi West 8.1 mph - N/A   Clear
3:15 PM 35.6 °F 29.9 °F 5.0 °F 28% 30.43 in 10.0 mi West 6.9 mph - N/A   Clear
3:35 PM 35.6 °F 29.2 °F 3.2 °F 26% 30.43 in 10.0 mi West 8.1 mph - N/A   Clear
3:55 PM 35.6 °F 31.7 °F 1.4 °F 24% 30.42 in 10.0 mi West 4.6 mph - N/A   Clear
4:15 PM 35.6 °F 31.7 °F 1.4 °F 24% 30.42 in 10.0 mi WNW 4.6 mph - N/A   Clear
4:35 PM 35.6 °F 32.8 °F 1.4 °F 24% 30.41 in 10.0 mi West 3.5 mph - N/A   Clear
4:55 PM 35.6 °F 32.8 °F 1.4 °F 24% 30.40 in 10.0 mi WNW 3.5 mph - N/A   Clear
5:15 PM 35.6 °F - 1.4 °F 24% 30.40 in 10.0 mi Calm Calm - N/A   Clear
5:35 PM 35.6 °F - 1.4 °F 24% 30.39 in 10.0 mi Calm Calm - N/A   Clear
5:55 PM 33.8 °F - 3.2 °F 28% 30.39 in 10.0 mi Calm Calm - N/A   Clear
6:15 PM 30.2 °F - 12.2 °F 47% 30.39 in 10.0 mi Calm Calm - N/A   Clear
6:35 PM 28.4 °F - 8.6 °F 43% 30.39 in 10.0 mi Calm Calm - N/A   Clear
6:55 PM 28.4 °F - 10.4 °F 47% 30.39 in 10.0 mi Calm Calm - N/A   Clear
7:15 PM 30.2 °F - 5.0 °F 34% 30.38 in 10.0 mi Calm Calm - N/A   Clear
7:35 PM 28.4 °F - 6.8 °F 40% 30.38 in 10.0 mi Calm Calm - N/A   Clear
7:55 PM 26.6 °F 22.6 °F 12.2 °F 55% 30.37 in 10.0 mi SE 3.5 mph - N/A   Clear
8:15 PM 24.8 °F - 14.0 °F 64% 30.37 in 10.0 mi Calm Calm - N/A   Clear
8:35 PM 24.8 °F - 15.8 °F 69% 30.37 in 10.0 mi Calm Calm - N/A   Clear
8:55 PM 23.0 °F - 17.6 °F 80% 30.37 in 10.0 mi Calm Calm - N/A   Clear
9:15 PM 23.0 °F 18.4 °F 17.6 °F 80% 30.35 in 10.0 mi SE 3.5 mph - N/A   Clear
9:35 PM 24.8 °F 20.5 °F 15.8 °F 69% 30.36 in 10.0 mi SSE 3.5 mph - N/A   Clear
9:55 PM 24.8 °F 20.5 °F 14.0 °F 64% 30.35 in 10.0 mi SSE 3.5 mph - N/A   Clear
10:15 PM 26.6 °F 21.2 °F 8.6 °F 47% 30.35 in 10.0 mi South 4.6 mph - N/A   Clear
10:35 PM 26.6 °F 22.6 °F 8.6 °F 47% 30.33 in 10.0 mi SSE 3.5 mph - N/A   Clear
10:55 PM 26.6 °F 21.2 °F 10.4 °F 51% 30.32 in 10.0 mi SE 4.6 mph - N/A   Clear
11:15 PM 26.6 °F 20.0 °F 8.6 °F 47% 30.32 in 10.0 mi SSE 5.8 mph - N/A   Clear
11:35 PM 26.6 °F 20.0 °F 8.6 °F 47% 30.31 in 10.0 mi SSE 5.8 mph - N/A   Clear
11:55 PM 26.6 °F 21.2 °F 10.4 °F 51% 30.30 in 10.0 mi SSE 4.6 mph - N/A   Clear